"Time","Temp","Dewpoint","Humidity","Pressure","Direction","Speed","Gust","Precip","PrecipRate","Solar"
"00:04:59","49.5","45.8","86.9","29.79","346","1.4","2.4","0.00","0.00","0"
"00:09:58","49.4","45.7","87","29.79","346","0.6","2.4","0.00","0.00","0"
"00:14:58","49.2","45.7","87.5","29.79","346","0","0","0.00","0.00","0"
"00:19:58","49.1","45.7","88","29.78","346","0.1","1.2","0.00","0.00","0"
"00:24:58","49.1","45.7","88","29.78","346","0.5","2.4","0.00","0.00","0"
"00:29:58","49.1","45.7","88","29.78","346","0.1","2.3","0.00","0.00","0"
"00:34:58","49.1","45.7","88","29.78","346","0.2","2.4","0.00","0.00","0"
"00:39:58","49.1","45.7","88","29.78","346","0.1","2.3","0.00","0.00","0"
"00:44:58","49.2","45.8","88","29.79","346","0","0","0.00","0.00","0"
"00:49:58","49.2","45.8","88","29.79","346","0","1.2","0.00","0.00","0"
"00:54:58","49.2","45.8","88","29.79","346","0","0","0.00","0.00","0"
"00:59:58","49.3","45.9","88","29.79","346","0","0","0.00","0.00","0"
"01:04:56","49.2","45.8","88","29.78","346","0","0","0.00","0.00","0"
"01:09:57","49.1","45.7","88","29.78","346","0","0","0.00","0.00","0"
"01:14:57","49.1","45.8","88.3","29.79","346","0","0","0.00","0.00","0"
"01:19:57","49.1","46","89","29.79","346","0.2","2.4","0.00","0.00","0"
"01:24:57","49","45.9","89","29.79","346","0.4","1.2","0.00","0.00","0"
"01:29:57","49","45.9","89","29.80","346","0","0","0.00","0.00","0"
"01:34:57","48.9","46.1","89.9","29.80","346","0","0","0.00","0.00","0"
"01:39:58","48.8","46","90","29.80","346","0.3","1.2","0.00","0.00","0"
"01:44:57","48.6","45.8","89.8","29.80","346","0.7","2.4","0.00","0.00","0"
"01:49:57","48.6","45.8","90","29.80","346","0.7","2.4","0.00","0.00","0"
"01:54:56","48.5","45.7","89.9","29.80","346","0.2","2.4","0.00","0.00","0"
"01:59:56","48.5","45.3","89","29.80","346","0","0","0.00","0.00","0"
"02:04:59","48.3","45.2","89","29.80","346","0","0","0.00","0.00","0"
"02:09:59","48","44.9","89.1","29.80","346","0","0","0.00","0.00","0"
"02:14:55","47.8","44.8","89.1","29.80","346","0","0","0.00","0.00","0"
"02:19:56","47.7","44.8","89.9","29.80","346","0","0","0.00","0.00","0"
"02:24:59","47.5","44.7","90","29.80","346","0","0","0.00","0.00","0"
"02:29:56","47.3","44.5","90","29.80","346","0","0","0.00","0.00","0"
"02:34:59","47.1","44.3","90","29.80","346","0","0","0.00","0.00","0"
"02:39:56","46.8","44","90","29.80","346","0","0","0.00","0.00","0"
"02:44:56","46.7","43.9","90.1","29.80","346","0","0","0.00","0.00","0"
"02:49:56","46.6","44.1","91","29.80","346","0","0","0.00","0.00","0"
"02:54:56","46.5","44","91","29.80","346","0","0","0.00","0.00","0"
"02:59:56","46.4","43.9","91","29.80","346","0","0","0.00","0.00","0"
"03:04:56","46.2","43.7","91","29.79","346","0","0","0.00","0.00","0"
"03:09:57","45.9","43.4","91","29.79","346","0","0","0.00","0.00","0"
"03:14:57","45.6","43.1","91","29.80","346","0","0","0.00","0.00","0"
"03:19:57","45.3","42.8","91","29.80","346","0","0","0.00","0.00","0"
"03:24:57","45.2","42.7","91","29.80","346","0","0","0.00","0.00","0"
"03:29:57","45.1","42.8","91.7","29.80","346","0","0","0.00","0.00","0"
"03:34:57","45","42.7","91.7","29.80","346","0","0","0.00","0.00","0"
"03:39:58","44.8","42.4","91.5","29.80","346","0","0","0.00","0.00","0"
"03:44:58","44.7","42.5","92","29.80","346","0","0","0.00","0.00","0"
"03:49:58","44.6","42.4","92","29.80","346","0","0","0.00","0.00","0"
"03:54:58","44.5","42.3","92","29.80","346","0","0","0.00","0.00","0"
"03:59:59","44.4","42.2","92","29.81","346","0","0","0.00","0.00","0"
"04:04:58","44.1","41.9","92","29.81","346","0","0","0.00","0.00","0"
"04:09:58","43.8","41.6","92","29.81","346","0","0","0.00","0.00","0"
"04:14:57","43.6","41.4","92","29.81","346","0","0","0.00","0.00","0"
"04:19:56","43.5","41.5","92.6","29.81","346","0","0","0.00","0.00","0"
"04:24:56","43.5","41.5","92.8","29.81","346","0","0","0.00","0.00","0"
"04:29:57","43.4","41.5","93","29.81","7","0.1","3.6","0.00","0.00","0"
"04:34:56","43.3","41.4","93","29.81","9","1.4","3.6","0.00","0.00","0"
"04:39:57","43","41.1","93","29.81","9","0.2","2.3","0.00","0.00","0"
"04:44:56","43","41.1","93","29.82","347","1.2","3.6","0.00","0.00","0"
"04:49:56","43","41.1","93","29.82","284","0.4","3.5","0.00","0.00","0"
"04:54:56","42.9","41","93","29.82","284","0.5","2.4","0.00","0.00","0"
"04:59:56","43","41.1","93","29.83","284","0.1","2.3","0.00","0.00","0"
"05:04:59","43.2","41.4","93.4","29.83","284","0","1.2","0.00","0.00","0"
"05:09:59","43.1","41.2","93","29.83","284","0.4","2.4","0.00","0.00","0"
"05:14:59","43.1","41.3","93.3","29.84","284","1.3","3.6","0.00","0.00","0"
"05:19:56","43","41.4","94","29.84","284","0.2","2.4","0.00","0.00","0"
"05:24:59","42.9","41.3","94","29.84","306","0.9","7.2","0.00","0.00","0"
"05:29:59","42.9","41.3","94","29.85","360","0.5","6.9","0.00","0.00","0"
"05:34:59","43","41.4","94","29.85","360","0.6","2.4","0.00","0.00","0"
"05:39:59","43","41.4","94","29.85","360","0.3","2.4","0.00","0.00","0"
"05:44:59","43","41.4","94","29.86","360","0","0","0.00","0.00","0"
"05:49:59","42.9","41.3","94","29.86","360","0","2.4","0.00","0.00","0"
"05:54:59","42.9","41.3","94","29.86","360","0.6","2.4","0.00","0.00","0"
"05:59:59","42.7","41.1","94","29.86","360","0","1.2","0.00","0.00","0"
"06:04:58","42.7","41.1","94","29.86","360","0.2","2.4","0.00","0.00","0"
"06:09:59","42.7","41.1","94","29.86","360","0.3","2.4","0.00","0.00","0"
"06:14:59","42.8","41.2","94","29.88","360","0.6","2.4","0.00","0.00","0"
"06:19:59","42.7","41.1","94","29.88","360","0","1.2","0.00","0.00","0"
"06:24:59","42.5","40.9","94","29.88","360","0.2","1.2","0.00","0.00","0"
"06:29:55","42.4","40.8","94","29.88","360","0.1","2.4","0.00","0.00","0"
"06:34:59","42.4","40.8","94","29.88","360","0.2","2.3","0.00","0.00","0"
"06:39:56","42.4","40.8","94","29.88","360","0.4","2.4","0.00","0.00","0"
"06:44:56","42.6","41","94","29.89","360","1","2.4","0.00","0.00","0"
"06:49:56","42.7","41.1","94","29.89","360","0.2","2.4","0.00","0.00","0"
"06:54:59","42.5","40.9","94","29.89","360","0","0","0.00","0.00","0"
"06:59:56","42.2","40.6","94","29.91","360","0","0","0.00","0.00","5"
"07:04:58","42.2","40.6","94","29.91","360","0","0","0.00","0.00","9"
"07:09:59","42.1","40.5","94","29.91","360","0.3","3.6","0.00","0.00","14"
"07:14:59","42.2","40.6","94","29.92","360","1","3.6","0.00","0.00","16"
"07:19:59","42.8","41.3","94.2","29.92","355","1.2","4.8","0.00","0.00","28"
"07:24:59","43.3","42","95","29.92","355","0.1","1.2","0.00","0.00","35"
"07:29:59","44.1","42.8","95","29.92","355","0.2","2.4","0.00","0.00","39"
"07:34:58","44.9","43.6","95","29.92","355","0.4","2.4","0.00","0.00","65"
"07:39:58","45.6","44.3","95","29.92","354","1.7","4.8","0.00","0.00","81"
"07:44:57","47.1","45.7","95","29.93","345","1.6","6","0.00","0.00","91"
"07:49:57","48.1","46.8","95.2","29.93","351","1.8","4.8","0.00","0.00","39"
"07:54:56","48.7","47.3","95","29.93","350","1","3.6","0.00","0.00","49"
"07:59:57","49.1","47.7","94.8","29.94","348","1.6","3.6","0.00","0.00","54"
"08:04:56","49.6","47.9","94","29.94","346","1","3.6","0.00","0.00","42"
"08:09:56","50","48","92.7","29.94","339","1.3","4.8","0.00","0.00","54"
"08:14:56","50.5","48","91.1","29.94","311","0.3","2.3","0.00","0.00","176"
"08:19:57","51.2","48.3","89.5","29.94","314","0.4","3.6","0.00","0.00","141"
"08:24:56","52","48.2","86.9","29.94","314","0.5","2.4","0.00","0.00","130"
"08:29:56","52.6","48.3","85.3","29.95","323","1","3.6","0.00","0.00","155"
"08:34:59","53.2","48.3","83.5","29.95","336","0.6","2.4","0.00","0.00","230"
"08:39:59","53.6","48.4","82.3","29.95","18","1.3","6","0.00","0.00","137"
"08:44:58","53.8","48.1","81","29.95","291","0.7","3.6","0.00","0.00","169"
"08:49:57","54","48.3","81","29.95","353","0.9","3.6","0.00","0.00","206"
"08:54:56","54.3","48","79.2","29.95","6","1.3","4.8","0.00","0.00","214"
"08:59:56","54.5","47.7","77.9","29.96","355","1.3","7.2","0.00","0.00","225"
"09:04:58","54.8","48.2","78.5","29.96","76","1.3","6","0.00","0.00","239"
"09:09:58","55.1","48","77","29.96","334","2.1","6","0.00","0.00","267"
"09:14:57","55.4","48.2","76.8","29.96","336","1.3","4.8","0.00","0.00","255"
"09:19:57","55.4","47.4","74.3","29.96","21","1.8","6","0.00","0.00","315"
"09:24:59","55.6","47.7","74.6","29.96","332","2.3","7.2","0.00","0.00","320"
"09:29:59","56","47.7","73.8","29.96","339","3.4","7.2","0.00","0.00","315"
"09:34:58","56.3","47.5","72.4","29.96","35","2.1","6","0.00","0.00","376"
"09:39:57","56.6","47.7","71.9","29.96","1","2.9","10.8","0.00","0.00","445"
"09:44:56","57.2","47.7","70.5","29.96","340","2.6","7.2","0.00","0.00","466"
"09:49:59","57.6","48.2","70.5","29.96","6","2","4.8","0.00","0.00","387"
"09:54:58","57.6","47.8","69.8","29.96","48","2","4.8","0.00","0.00","390"
"09:59:57","57.7","47.6","69","29.97","352","3.5","15","0.00","0.00","392"
"10:04:59","57.4","46.7","67.6","29.97","351","3.8","12.7","0.00","0.00","403"
"10:09:59","57.6","47","67.7","29.97","343","4.1","12","0.00","0.00","396"
"10:14:50","57.4","46.4","66.7","29.98","347","4.9","12","0.00","0.00","360"
"10:19:57","57.2","46.1","66.5","29.98","343","6.4","15","0.00","0.00","364"
"10:24:59","57.3","46.6","67.6","29.98","348","4.6","13.2","0.00","0.00","332"
"10:29:58","57.8","46.9","66.9","29.98","351","5.4","16.1","0.00","0.00","388"
"10:34:57","58","46.5","65.5","29.98","350","4.8","12","0.00","0.00","292"
"10:39:57","58.2","46.7","65.7","29.98","352","2.2","8.4","0.00","0.00","345"
"10:44:59","58.6","47.1","65.6","29.98","356","1.9","4.8","0.00","0.00","336"
"10:49:59","58.5","46.3","63.9","29.98","7","2.5","7.2","0.00","0.00","301"
"10:54:57","58.2","46.3","64.5","29.98","0","3.7","13.2","0.00","0.00","241"
"10:59:57","58","45.8","63.9","29.98","311","6","15","0.00","0.00","220"
"11:04:58","57.8","45.5","63.5","29.97","348","5.3","15","0.00","0.00","216"
"11:09:59","57.8","45.6","63.7","29.97","345","2.8","12.7","0.00","0.00","230"
"11:14:58","58.2","45.8","63.4","29.97","8","1.8","7.2","0.00","0.00","269"
"11:19:57","58.5","45.6","62.4","29.97","349","3.8","9.6","0.00","0.00","313"
"11:24:56","58.7","45.7","61.9","29.97","346","2.8","9.2","0.00","0.00","327"
"11:29:59","58.9","46.2","62.7","29.97","347","2.5","8.1","0.00","0.00","311"
"11:34:58","59.2","46.3","62.3","29.96","330","3.1","8.4","0.00","0.00","274"
"11:39:58","59.2","46.2","62.1","29.96","27","2.1","7.2","0.00","0.00","246"
"11:44:57","59.4","46.6","62.5","29.97","7","1.8","6","0.00","0.00","221"
"11:49:57","59.4","46.4","62.2","29.97","8","1.7","3.6","0.00","0.00","213"
"11:54:56","59.3","46.7","63.1","29.97","58","1.1","3.6","0.00","0.00","213"
"11:59:59","59.4","46.7","62.8","29.97","48","1.3","3.6","0.00","0.00","216"
"12:04:57","59.3","46.9","63.6","29.95","352","2","6","0.00","0.00","264"
"12:09:58","59.4","46.8","62.9","29.95","348","3.1","8.4","0.00","0.00","290"
"12:14:57","59.6","47","63","29.95","78","1.9","8.1","0.00","0.00","313"
"12:19:57","60","47.1","62.5","29.95","344","1.6","7.2","0.00","0.00","330"
"12:24:56","60.1","47","61.9","29.95","338","1.7","5.8","0.00","0.00","373"
"12:29:59","60.3","47.2","61.9","29.95","45","2","8.4","0.00","0.00","334"
"12:34:58","60.4","47.4","62.2","29.94","14","1.9","8.1","0.00","0.00","330"
"12:39:58","60.6","47.5","62","29.94","345","2.6","7.2","0.00","0.00","304"
"12:44:57","60.5","46.8","60.5","29.94","340","1.5","5.8","0.00","0.00","431"
"12:49:57","61.4","48","61.4","29.94","346","2.2","6","0.00","0.00","464"
"12:54:57","61.7","48","60.8","29.94","350","1.5","4.8","0.00","0.00","554"
"12:59:56","61.7","47.5","59.5","29.94","342","1.7","7.2","0.00","0.00","601"
"13:04:58","62","47.7","59.6","29.94","332","3.3","7.2","0.00","0.00","527"
"13:09:58","62.2","48","59.6","29.94","357","2.7","8.4","0.00","0.00","555"
"13:14:58","62.4","48.3","59.9","29.95","353","2.1","8.1","0.00","0.00","476"
"13:19:58","62.2","47.3","58.1","29.95","268","2","4.8","0.00","0.00","649"
"13:24:57","62.3","48.3","60.1","29.95","245","1.7","4.8","0.00","0.00","589"
"13:29:56","63","47.8","57.8","29.95","318","3.6","7.2","0.00","0.00","589"
"13:34:59","62.9","48.8","60.1","29.95","238","4.2","7.2","0.00","0.00","466"
"13:39:59","62.9","48.4","59.1","29.95","246","3.6","5.8","0.00","0.00","272"
"13:44:42","62.9","48.1","58.4","29.95","246","3.1","6","0.00","0.00","766"
"13:49:58","64","49.4","59.2","29.94","190","3","7.2","0.00","0.00","735"
"13:54:57","65.2","50.4","58.8","29.94","205","2.8","6.9","0.00","0.00","708"
"13:59:56","65.5","49.6","56.6","29.94","216","2.5","6","0.00","0.00","705"
"14:04:58","64.9","49.3","56.9","29.94","214","2.9","6","0.00","0.00","724"
"14:09:58","65.6","50.5","58.1","29.94","260","3","6","0.00","0.00","765"
"14:14:57","64.9","48.2","54.7","29.94","332","1.4","4.6","0.00","0.00","679"
"14:19:57","65.4","49.4","56.2","29.93","307","2.6","7.2","0.00","0.00","671"
"14:24:58","66.1","50.6","57.4","29.93","260","3.2","8.4","0.00","0.00","816"
"14:29:58","65.6","49.1","55.3","29.93","239","3.9","8.1","0.00","0.00","824"
"14:34:56","65.7","50.3","57.7","29.93","222","4.2","7.2","0.00","0.00","824"
"14:39:56","65.8","50","56.7","29.93","190","4.7","8.4","0.00","0.00","642"
"14:44:59","65.6","49.5","56.1","29.93","204","2.9","8.4","0.00","0.00","784"
"14:49:58","65.6","49.4","55.9","29.92","280","3.8","10.8","0.00","0.00","768"
"14:54:57","64.8","48.2","55","29.92","302","2.9","6","0.00","0.00","199"
"14:59:56","64.5","48.2","55.5","29.93","356","1.7","4.8","0.00","0.00","162"
"15:04:59","64.3","48.1","55.5","29.93","9","0.1","2.3","0.00","0.00","142"
"15:09:59","64.2","48.3","56.3","29.93","9","0.4","2.4","0.00","0.00","116"
"15:14:59","64.1","48.6","57","29.93","9","0.8","2.4","0.00","0.00","95"
"15:19:59","64.1","48.9","57.8","29.92","9","0","0","0.00","0.00","77"
"15:24:59","64.1","49.1","58.2","29.92","9","0","0","0.00","0.00","58"
"15:29:58","64","48.9","58","29.92","9","0","0","0.00","0.00","51"
"15:34:58","63.8","48.6","57.8","29.92","9","0","0","0.00","0.00","60"
"15:39:58","63.7","48.8","58.5","29.92","317","1.3","3.6","0.00","0.00","76"
"15:44:57","63.6","48.9","58.8","29.92","240","1.8","4.8","0.00","0.00","79"
"15:49:56","63.7","49.2","59.2","29.92","198","2.1","4.8","0.00","0.00","79"
"15:54:59","63.7","49.4","59.7","29.92","196","1.5","3.6","0.00","0.00","105"
"15:59:59","63.8","49.7","59.9","29.92","194","1.8","3.6","0.00","0.00","97"
"16:04:16","63.9","49.7","59.8","29.92","181","1.9","4.8","0.00","0.00","97"
"16:09:57","63.8","49.2","59","29.92","173","2.6","4.8","0.00","0.00","76"
"16:14:56","63.7","49.1","59.1","29.92","169","2.7","6","0.00","0.00","81"
"16:19:56","63.5","49.3","59.8","29.92","193","3.3","4.8","0.00","0.00","132"
"16:24:59","63.5","49.4","59.9","29.92","186","2.1","4.8","0.00","0.00","132"
"16:29:58","63.6","49.6","60.3","29.92","180","3.3","7.2","0.00","0.00","98"
"16:34:57","63.5","49.5","60.3","29.92","194","3.9","7.2","0.00","0.00","125"
"16:39:57","63.4","49.3","60","29.92","190","2.9","6.9","0.00","0.00","146"
"16:44:56","63.7","50.2","61.6","29.92","185","3.3","6","0.00","0.00","244"
"16:49:59","64.4","51.1","62.1","29.92","196","3.8","7.2","0.00","0.00","520"
"16:54:58","65.6","50.6","58.3","29.92","164","3.3","8.4","0.00","0.00","469"
"16:59:58","65.7","49.8","56.5","29.92","182","3.9","8.1","0.00","0.00","179"
"17:04:59","65.2","49.6","57","29.91","150","3.5","10.8","0.00","0.00","258"
"17:09:56","64.9","49.1","56.7","29.91","142","4.3","12","0.00","0.00","195"
"17:14:59","64.4","48.7","56.8","29.92","184","4.7","11.5","0.00","0.00","128"
"17:19:59","64","48.9","58","29.92","163","3.6","8.4","0.00","0.00","91"
"17:24:58","63.7","49.1","59.1","29.92","184","3.4","10.8","0.00","0.00","79"
"17:29:57","63.4","49.1","59.6","29.92","186","3.8","12","0.00","0.00","100"
"17:34:56","63.1","48.9","59.8","29.92","184","4.3","10.8","0.00","0.00","98"
"17:39:56","62.9","48.4","59.2","29.92","182","4.3","10.4","0.00","0.00","111"
"17:44:59","62.9","48.5","59.4","29.92","167","3.7","7.2","0.00","0.00","134"
"17:49:58","62.9","48.7","59.8","29.92","191","4.6","12","0.00","0.00","81"
"17:54:57","62.8","48.7","60.1","29.92","181","3.8","8.4","0.00","0.00","63"
"17:59:57","62.5","49.3","61.9","29.92","166","3.2","9.6","0.00","0.00","76"
"18:04:58","62.3","49.3","62.5","29.92","180","3.4","6","0.00","0.00","77"
"18:09:58","62.2","50.2","64.9","29.92","181","3.4","7.2","0.00","0.00","69"
"18:14:58","62","50.5","66","29.92","186","2.8","6.9","0.00","0.00","69"
"18:19:57","61.9","50.9","67.3","29.92","184","1.5","4.8","0.00","0.00","74"
"18:24:56","61.9","50.8","67","29.92","173","3.3","6","0.00","0.00","81"
"18:29:56","61.8","50.7","67.2","29.92","192","3.7","6","0.00","0.00","81"
"18:34:58","61.5","50.7","67.7","29.92","203","4.2","8.4","0.00","0.00","56"
"18:39:58","61.2","50.6","68.2","29.92","192","2.7","6","0.00","0.00","54"
"18:44:58","61","50.4","68","29.92","177","2.7","6","0.00","0.00","32"
"18:49:57","60.7","50.3","68.5","29.92","183","2.3","5.8","0.00","0.00","33"
"18:54:56","60.4","50.2","69","29.92","163","1.4","4.8","0.00","0.00","30"
"18:59:56","60.2","50.1","69.3","29.93","138","1","3.6","0.00","0.00","18"
"19:04:58","60.1","50.3","69.9","29.93","139","0.5","2.4","0.00","0.00","12"
"19:09:58","60","49.9","69.2","29.93","139","0.9","2.4","0.00","0.00","9"
"19:14:59","60","49.8","69.1","29.93","139","0.1","1.2","0.00","0.00","7"
"19:19:56","59.9","49.8","69.3","29.93","139","0.1","1.2","0.00","0.00","5"
"19:24:56","59.9","49.8","69.4","29.93","139","0","1.2","0.00","0.00","0"
"19:29:56","59.8","49.6","69","29.94","139","0.4","1.2","0.00","0.00","0"
"19:34:56","59.7","49.6","69.4","29.94","139","0.2","1.2","0.00","0.00","0"
"19:39:57","59.6","49.7","69.8","29.94","139","0.2","2.4","0.00","0.00","0"
"19:44:57","59.4","49.6","70","29.94","139","0","0","0.00","0.00","0"
"19:49:58","59.3","49.5","70","29.94","139","0","0","0.00","0.00","0"
"19:54:58","59.2","49.4","70","29.94","139","0","0","0.00","0.00","0"
"19:59:58","59","49.3","70.4","29.94","139","0","0","0.00","0.00","0"
"20:04:57","58.7","49.3","71","29.93","139","0","0","0.00","0.00","0"
"20:09:58","58.4","49.2","71.6","29.93","139","0","0","0.00","0.00","0"
"20:14:58","57.9","49.3","72.8","29.93","139","0","0","0.00","0.00","0"
"20:19:59","57.5","49","73.2","29.93","139","0","0","0.00","0.00","0"
"20:24:59","57","48.8","73.8","29.93","139","0","0","0.00","0.00","0"
"20:29:59","56.6","48.6","74.4","29.93","139","0","0","0.00","0.00","0"
"20:34:59","56.2","48.4","75","29.93","139","0","0","0.00","0.00","0"
"20:39:57","55.8","48.1","75.3","29.93","139","0","0","0.00","0.00","0"
"20:44:57","55.4","48","76","29.94","139","0","0","0.00","0.00","0"
"20:49:58","55.1","48","76.8","29.94","139","0","0","0.00","0.00","0"
"20:54:58","54.8","47.7","77","29.94","139","0","0","0.00","0.00","0"
"20:59:58","54.5","47.5","77.4","29.94","139","0","0","0.00","0.00","0"
"21:04:59","54.1","47.4","78","29.94","139","0","0","0.00","0.00","0"
"21:09:56","53.8","47.4","78.8","29.94","139","0","0","0.00","0.00","0"
"21:14:57","53.6","47.3","79.3","29.95","139","0","0","0.00","0.00","0"
"21:19:58","53.3","47.3","80","29.95","139","0","0","0.00","0.00","0"
"21:24:58","53.3","47.3","80.2","29.95","139","0","0","0.00","0.00","0"
"21:29:58","53.1","47.3","80.9","29.95","139","0","0","0.00","0.00","0"
"21:34:58","53","47.3","81","29.95","139","0","0","0.00","0.00","0"
"21:39:59","52.9","47.2","81","29.95","139","0","0","0.00","0.00","0"
"21:44:59","52.7","47.1","81.2","29.97","139","0","0","0.00","0.00","0"
"21:49:56","52.5","47.2","82","29.97","139","0","0","0.00","0.00","0"
"21:54:56","52.4","47.1","82.1","29.97","139","0","0","0.00","0.00","0"
"21:59:56","52.3","47.3","83","29.97","140","0.2","2.4","0.00","0.00","0"
"22:04:59","52.3","47.2","82.8","29.97","140","0.3","3.6","0.00","0.00","0"
"22:09:59","52.5","47.2","82","29.97","141","1.2","4.8","0.00","0.00","0"
"22:14:59","53.2","47.4","80.6","29.97","140","2.9","8.4","0.00","0.00","0"
"22:19:59","54","47.8","79.5","29.97","160","1.5","5.8","0.00","0.00","0"
"22:24:59","54.5","47.9","78.4","29.97","155","2","3.6","0.00","0.00","0"
"22:29:59","54.7","48","78","29.97","158","1.9","4.8","0.00","0.00","0"
"22:34:59","54.9","48","77.4","29.96","147","1.8","3.6","0.00","0.00","0"
"22:39:56","55","47.9","77","29.96","127","2.7","6","0.00","0.00","0"
"22:44:59","55.1","48","77","29.96","121","3.1","7.2","0.00","0.00","0"
"22:49:59","55.1","48","77","29.95","109","1.1","6.9","0.00","0.00","0"
"22:54:59","55","47.9","77","29.95","109","0.2","2.3","0.00","0.00","0"
"22:59:59","54.9","47.8","77","29.97","109","1.1","3.6","0.00","0.00","0"
"23:04:58","54.8","47.7","77","29.97","109","0.9","3.6","0.00","0.00","0"
"23:09:58","54.7","47.6","77","29.97","131","0.8","4.8","0.00","0.00","0"
"23:14:59","54.6","47.5","77","29.97","137","1.8","3.6","0.00","0.00","0"
"23:19:59","54.5","47.4","77","29.96","137","0.6","2.4","0.00","0.00","0"
"23:24:58","54.2","47.4","77.7","29.96","137","0.8","2.4","0.00","0.00","0"
"23:29:59","54.1","47.4","78","29.96","141","1","4.8","0.00","0.00","0"
"23:34:59","54.1","47.6","78.6","29.95","142","1","3.6","0.00","0.00","0"
"23:39:56","54.2","47.8","79","29.95","151","1.8","4.8","0.00","0.00","0"
"23:44:56","54.3","47.9","79","29.95","147","1.4","3.6","0.00","0.00","0"
"23:49:56","54.3","47.9","79","29.95","142","1.6","4.8","0.00","0.00","0"
"23:54:56","54.4","48","79","29.95","144","0.5","3.5","0.00","0.00","0"
